owner,sensor,date,latitude,longitude,vertical_datum,sea_water_practical_salinity,qcFlag 
ENP,ioos.station.NOAA.NDBC:BOBF1:1,2019-03-01T03:00:00Z,25.0270,-80.6810,1.5,36.21,1111122 
ENP,ioos.station.NOAA.NDBC:BOBF1:1,2019-03-01T05:00:00Z,25.0270,-80.6810,1.5,36.28,1111122 
ENP,ioos.station.NOAA.NDBC:BOBF1:1,2019-03-01T06:00:00Z,25.0270,-80.6810,1.5,36.36,1111122 
ENP,ioos.station.NOAA.NDBC:BOBF1:1,2019-03-01T07:00:00Z,25.0270,-80.6810,1.5,36.21,1111122 
ENP,ioos.station.NOAA.NDBC:BOBF1:1,2019-03-01T08:00:00Z,25.0270,-80.6810,1.5,36.14,1111122 
ENP,ioos.station.NOAA.NDBC:BOBF1:1,2019-03-01T09:00:00Z,25.0270,-80.6810,1.5,36.06,1111122 
ENP,ioos.station.NOAA.NDBC:BOBF1:1,2019-03-01T10:00:00Z,25.0270,-80.6810,1.5,36.06,1111122 
ENP,ioos.station.NOAA.NDBC:BOBF1:1,2019-03-01T11:00:00Z,25.0270,-80.6810,1.5,36.14,1111122 
ENP,ioos.station.NOAA.NDBC:BOBF1:1,2019-03-01T12:00:00Z,25.0270,-80.6810,1.5,36.14,1111122 
ENP,ioos.station.NOAA.NDBC:BOBF1:1,2019-03-01T13:00:00Z,25.0270,-80.6810,1.5,36.14,1111122 
ENP,ioos.station.NOAA.NDBC:BOBF1:1,2019-03-01T14:00:00Z,25.0270,-80.6810,1.5,36.21,1111122 
ENP,ioos.station.NOAA.NDBC:BOBF1:1,2019-03-01T15:00:00Z,25.0270,-80.6810,1.5,36.21,1111122 
ENP,ioos.station.NOAA.NDBC:BOBF1:1,2019-03-01T16:00:00Z,25.0270,-80.6810,1.5,36.21,1111122 
ENP,ioos.station.NOAA.NDBC:BOBF1:1,2019-03-01T17:00:00Z,25.0270,-80.6810,1.5,36.28,1111122 
ENP,ioos.station.NOAA.NDBC:BOBF1:1,2019-03-01T18:00:00Z,25.0270,-80.6810,1.5,36.36,1111122 
ENP,ioos.station.NOAA.NDBC:BOBF1:1,2019-03-01T19:00:00Z,25.0270,-80.6810,1.5,36.21,1111122 
ENP,ioos.station.NOAA.NDBC:BOBF1:1,2019-03-01T20:00:00Z,25.0270,-80.6810,1.5,36.21,1111122 
ENP,ioos.station.NOAA.NDBC:BOBF1:1,2019-03-01T21:00:00Z,25.0270,-80.6810,1.5,36.28,1111122 
ENP,ioos.station.NOAA.NDBC:BOBF1:1,2019-03-01T22:00:00Z,25.0270,-80.6810,1.5,36.21,1111122 
ENP,ioos.station.NOAA.NDBC:BOBF1:1,2019-03-01T23:00:00Z,25.0270,-80.6810,1.5,36.28,1111122 
ENP,ioos.station.NOAA.NDBC:BOBF1:1,2019-03-02T00:00:00Z,25.0270,-80.6810,1.5,36.28,1111122 
ENP,ioos.station.NOAA.NDBC:BOBF1:1,2019-03-02T01:00:00Z,25.0270,-80.6810,1.5,36.28,1111122 
ENP,ioos.station.NOAA.NDBC:BOBF1:1,2019-03-02T03:00:00Z,25.0270,-80.6810,1.5,36.28,1111122 
ENP,ioos.station.NOAA.NDBC:BOBF1:1,2019-03-02T05:00:00Z,25.0270,-80.6810,1.5,36.43,1111122 
ENP,ioos.station.NOAA.NDBC:BOBF1:1,2019-03-02T06:00:00Z,25.0270,-80.6810,1.5,36.36,1111122 
ENP,ioos.station.NOAA.NDBC:BOBF1:1,2019-03-02T07:00:00Z,25.0270,-80.6810,1.5,36.43,1111122 
ENP,ioos.station.NOAA.NDBC:BOBF1:1,2019-03-02T08:00:00Z,25.0270,-80.6810,1.5,36.36,1111122 
ENP,ioos.station.NOAA.NDBC:BOBF1:1,2019-03-02T09:00:00Z,25.0270,-80.6810,1.5,36.36,1111122 
ENP,ioos.station.NOAA.NDBC:BOBF1:1,2019-03-02T10:00:00Z,25.0270,-80.6810,1.5,36.36,1111122 
ENP,ioos.station.NOAA.NDBC:BOBF1:1,2019-03-02T11:00:00Z,25.0270,-80.6810,1.5,36.36,1111122 
ENP,ioos.station.NOAA.NDBC:BOBF1:1,2019-03-02T12:00:00Z,25.0270,-80.6810,1.5,36.28,1111122 
ENP,ioos.station.NOAA.NDBC:BOBF1:1,2019-03-02T13:00:00Z,25.0270,-80.6810,1.5,36.43,1111122 
ENP,ioos.station.NOAA.NDBC:BOBF1:1,2019-03-02T14:00:00Z,25.0270,-80.6810,1.5,36.21,1111122 
ENP,ioos.station.NOAA.NDBC:BOBF1:1,2019-03-02T15:00:00Z,25.0270,-80.6810,1.5,36.36,1111122 
ENP,ioos.station.NOAA.NDBC:BOBF1:1,2019-03-02T16:00:00Z,25.0270,-80.6810,1.5,36.36,1111122 
ENP,ioos.station.NOAA.NDBC:BOBF1:1,2019-03-02T17:00:00Z,25.0270,-80.6810,1.5,36.43,1111122 
ENP,ioos.station.NOAA.NDBC:BOBF1:1,2019-03-02T18:00:00Z,25.0270,-80.6810,1.5,36.28,1111122 
ENP,ioos.station.NOAA.NDBC:BOBF1:1,2019-03-02T19:00:00Z,25.0270,-80.6810,1.5,36.28,1111122 
ENP,ioos.station.NOAA.NDBC:BOBF1:1,2019-03-02T20:00:00Z,25.0270,-80.6810,1.5,36.21,1111122 
ENP,ioos.station.NOAA.NDBC:BOBF1:1,2019-03-02T21:00:00Z,25.0270,-80.6810,1.5,36.36,1111122 
ENP,ioos.station.NOAA.NDBC:BOBF1:1,2019-03-02T22:00:00Z,25.0270,-80.6810,1.5,36.28,1111122 
ENP,ioos.station.NOAA.NDBC:BOBF1:1,2019-03-02T23:00:00Z,25.0270,-80.6810,1.5,36.36,1111122 
ENP,ioos.station.NOAA.NDBC:BOBF1:1,2019-03-03T00:00:00Z,25.0270,-80.6810,1.5,36.36,1111122 
ENP,ioos.station.NOAA.NDBC:BOBF1:1,2019-03-03T01:00:00Z,25.0270,-80.6810,1.5,36.43,1111122 
ENP,ioos.station.NOAA.NDBC:BOBF1:1,2019-03-03T03:00:00Z,25.0270,-80.6810,1.5,36.43,1111122 
ENP,ioos.station.NOAA.NDBC:BOBF1:1,2019-03-03T05:00:00Z,25.0270,-80.6810,1.5,36.36,1111122 
ENP,ioos.station.NOAA.NDBC:BOBF1:1,2019-03-03T06:00:00Z,25.0270,-80.6810,1.5,36.28,1111122 
ENP,ioos.station.NOAA.NDBC:BOBF1:1,2019-03-03T07:00:00Z,25.0270,-80.6810,1.5,36.36,1111122 
ENP,ioos.station.NOAA.NDBC:BOBF1:1,2019-03-03T08:00:00Z,25.0270,-80.6810,1.5,36.43,1111122 
ENP,ioos.station.NOAA.NDBC:BOBF1:1,2019-03-03T09:00:00Z,25.0270,-80.6810,1.5,36.43,1111122 
ENP,ioos.station.NOAA.NDBC:BOBF1:1,2019-03-03T10:00:00Z,25.0270,-80.6810,1.5,36.36,1111122 
ENP,ioos.station.NOAA.NDBC:BOBF1:1,2019-03-03T11:00:00Z,25.0270,-80.6810,1.5,36.36,1111122 
ENP,ioos.station.NOAA.NDBC:BOBF1:1,2019-03-03T12:00:00Z,25.0270,-80.6810,1.5,36.36,1111122 
ENP,ioos.station.NOAA.NDBC:BOBF1:1,2019-03-03T13:00:00Z,25.0270,-80.6810,1.5,36.28,1111122 
ENP,ioos.station.NOAA.NDBC:BOBF1:1,2019-03-03T14:00:00Z,25.0270,-80.6810,1.5,36.28,1111122 
ENP,ioos.station.NOAA.NDBC:BOBF1:1,2019-03-03T15:00:00Z,25.0270,-80.6810,1.5,36.21,1111122 
ENP,ioos.station.NOAA.NDBC:BOBF1:1,2019-03-03T16:00:00Z,25.0270,-80.6810,1.5,36.21,1111122 
ENP,ioos.station.NOAA.NDBC:BOBF1:1,2019-03-03T17:00:00Z,25.0270,-80.6810,1.5,36.43,1111122 
ENP,ioos.station.NOAA.NDBC:BOBF1:1,2019-03-03T19:00:00Z,25.0270,-80.6810,1.5,36.36,1111122 
ENP,ioos.station.NOAA.NDBC:BOBF1:1,2019-03-03T20:00:00Z,25.0270,-80.6810,1.5,36.36,1111122 
ENP,ioos.station.NOAA.NDBC:BOBF1:1,2019-03-03T21:00:00Z,25.0270,-80.6810,1.5,36.28,1111122 
ENP,ioos.station.NOAA.NDBC:BOBF1:1,2019-03-03T22:00:00Z,25.0270,-80.6810,1.5,36.36,1111122 
ENP,ioos.station.NOAA.NDBC:BOBF1:1,2019-03-03T23:00:00Z,25.0270,-80.6810,1.5,36.36,1111122 
ENP,ioos.station.NOAA.NDBC:BOBF1:1,2019-03-04T00:00:00Z,25.0270,-80.6810,1.5,36.28,1111122 
ENP,ioos.station.NOAA.NDBC:BOBF1:1,2019-03-04T01:00:00Z,25.0270,-80.6810,1.5,36.21,1111122 
ENP,ioos.station.NOAA.NDBC:BOBF1:1,2019-03-04T03:00:00Z,25.0270,-80.6810,1.5,36.36,1111122 
ENP,ioos.station.NOAA.NDBC:BOBF1:1,2019-03-04T05:00:00Z,25.0270,-80.6810,1.5,36.36,1111122 
ENP,ioos.station.NOAA.NDBC:BOBF1:1,2019-03-04T06:00:00Z,25.0270,-80.6810,1.5,36.36,1111122 
ENP,ioos.station.NOAA.NDBC:BOBF1:1,2019-03-04T07:00:00Z,25.0270,-80.6810,1.5,36.28,1111122 
ENP,ioos.station.NOAA.NDBC:BOBF1:1,2019-03-04T08:00:00Z,25.0270,-80.6810,1.5,36.28,1111122 
ENP,ioos.station.NOAA.NDBC:BOBF1:1,2019-03-04T09:00:00Z,25.0270,-80.6810,1.5,36.36,1111122 
ENP,ioos.station.NOAA.NDBC:BOBF1:1,2019-03-04T10:00:00Z,25.0270,-80.6810,1.5,36.43,1111122 
ENP,ioos.station.NOAA.NDBC:BOBF1:1,2019-03-04T11:00:00Z,25.0270,-80.6810,1.5,36.36,1111122 
ENP,ioos.station.NOAA.NDBC:BOBF1:1,2019-03-04T12:00:00Z,25.0270,-80.6810,1.5,36.51,1111122 
ENP,ioos.station.NOAA.NDBC:BOBF1:1,2019-03-04T13:00:00Z,25.0270,-80.6810,1.5,36.43,1111122 
ENP,ioos.station.NOAA.NDBC:BOBF1:1,2019-03-04T14:00:00Z,25.0270,-80.6810,1.5,36.43,1111122 
ENP,ioos.station.NOAA.NDBC:BOBF1:1,2019-03-04T15:00:00Z,25.0270,-80.6810,1.5,36.28,1111122 
ENP,ioos.station.NOAA.NDBC:BOBF1:1,2019-03-04T16:00:00Z,25.0270,-80.6810,1.5,36.36,1111122 
ENP,ioos.station.NOAA.NDBC:BOBF1:1,2019-03-04T17:00:00Z,25.0270,-80.6810,1.5,36.36,1111122 
ENP,ioos.station.NOAA.NDBC:BOBF1:1,2019-03-04T18:00:00Z,25.0270,-80.6810,1.5,36.43,1111122 
ENP,ioos.station.NOAA.NDBC:BOBF1:1,2019-03-04T19:00:00Z,25.0270,-80.6810,1.5,36.43,1111122 
ENP,ioos.station.NOAA.NDBC:BOBF1:1,2019-03-04T20:00:00Z,25.0270,-80.6810,1.5,36.43,1111122 
ENP,ioos.station.NOAA.NDBC:BOBF1:1,2019-03-04T21:00:00Z,25.0270,-80.6810,1.5,36.51,1111122 
ENP,ioos.station.NOAA.NDBC:BOBF1:1,2019-03-04T22:00:00Z,25.0270,-80.6810,1.5,36.66,1111122 
ENP,ioos.station.NOAA.NDBC:BOBF1:1,2019-03-04T23:00:00Z,25.0270,-80.6810,1.5,36.51,1111122 
ENP,ioos.station.NOAA.NDBC:BOBF1:1,2019-03-05T00:00:00Z,25.0270,-80.6810,1.5,36.58,1111122 
ENP,ioos.station.NOAA.NDBC:BOBF1:1,2019-03-05T01:00:00Z,25.0270,-80.6810,1.5,36.66,1111122 
ENP,ioos.station.NOAA.NDBC:BOBF1:1,2019-03-05T02:00:00Z,25.0270,-80.6810,1.5,36.66,1111122 
ENP,ioos.station.NOAA.NDBC:BOBF1:1,2019-03-05T03:00:00Z,25.0270,-80.6810,1.5,36.66,1111122 
ENP,ioos.station.NOAA.NDBC:BOBF1:1,2019-03-05T05:00:00Z,25.0270,-80.6810,1.5,37.25,1111122 
ENP,ioos.station.NOAA.NDBC:BOBF1:1,2019-03-05T06:00:00Z,25.0270,-80.6810,1.5,35.23,1111122 
ENP,ioos.station.NOAA.NDBC:BOBF1:1,2019-03-05T07:00:00Z,25.0270,-80.6810,1.5,38.15,1111122 
ENP,ioos.station.NOAA.NDBC:BOBF1:1,2019-03-05T08:00:00Z,25.0270,-80.6810,1.5,37.33,1111122 
ENP,ioos.station.NOAA.NDBC:BOBF1:1,2019-03-05T10:00:00Z,25.0270,-80.6810,1.5,36.95,1111122 
ENP,ioos.station.NOAA.NDBC:BOBF1:1,2019-03-05T11:00:00Z,25.0270,-80.6810,1.5,37.1,1111122 
ENP,ioos.station.NOAA.NDBC:BOBF1:1,2019-03-05T12:00:00Z,25.0270,-80.6810,1.5,37.03,1111122 
ENP,ioos.station.NOAA.NDBC:BOBF1:1,2019-03-05T13:00:00Z,25.0270,-80.6810,1.5,37.03,1111122 
ENP,ioos.station.NOAA.NDBC:BOBF1:1,2019-03-05T14:00:00Z,25.0270,-80.6810,1.5,37.1,1111122 
ENP,ioos.station.NOAA.NDBC:BOBF1:1,2019-03-05T15:00:00Z,25.0270,-80.6810,1.5,36.95,1111122 
ENP,ioos.station.NOAA.NDBC:BOBF1:1,2019-03-05T16:00:00Z,25.0270,-80.6810,1.5,37.18,1111122 
ENP,ioos.station.NOAA.NDBC:BOBF1:1,2019-03-05T17:00:00Z,25.0270,-80.6810,1.5,37.1,1111122 
ENP,ioos.station.NOAA.NDBC:BOBF1:1,2019-03-05T19:00:00Z,25.0270,-80.6810,1.5,36.83,1111122 
ENP,ioos.station.NOAA.NDBC:BOBF1:1,2019-03-05T20:00:00Z,25.0270,-80.6810,1.5,36.86,1111122 
ENP,ioos.station.NOAA.NDBC:BOBF1:1,2019-03-05T22:00:00Z,25.0270,-80.6810,1.5,36.94,1111122 
ENP,ioos.station.NOAA.NDBC:BOBF1:1,2019-03-05T23:00:00Z,25.0270,-80.6810,1.5,36.93,1111122 
ENP,ioos.station.NOAA.NDBC:BOBF1:1,2019-03-06T00:00:00Z,25.0270,-80.6810,1.5,36.98,1111122 
ENP,ioos.station.NOAA.NDBC:BOBF1:1,2019-03-06T01:00:00Z,25.0270,-80.6810,1.5,36.98,1111122 
ENP,ioos.station.NOAA.NDBC:BOBF1:1,2019-03-06T02:00:00Z,25.0270,-80.6810,1.5,36.99,1111122 
ENP,ioos.station.NOAA.NDBC:BOBF1:1,2019-03-06T03:00:00Z,25.0270,-80.6810,1.5,37.09,1111122 
ENP,ioos.station.NOAA.NDBC:BOBF1:1,2019-03-06T05:00:00Z,25.0270,-80.6810,1.5,37.0,1111122 
ENP,ioos.station.NOAA.NDBC:BOBF1:1,2019-03-06T06:00:00Z,25.0270,-80.6810,1.5,37.15,1111122 
ENP,ioos.station.NOAA.NDBC:BOBF1:1,2019-03-06T07:00:00Z,25.0270,-80.6810,1.5,37.22,1111122 
ENP,ioos.station.NOAA.NDBC:BOBF1:1,2019-03-06T08:00:00Z,25.0270,-80.6810,1.5,37.35,1111122 
ENP,ioos.station.NOAA.NDBC:BOBF1:1,2019-03-06T09:00:00Z,25.0270,-80.6810,1.5,37.27,1111122 
ENP,ioos.station.NOAA.NDBC:BOBF1:1,2019-03-06T10:00:00Z,25.0270,-80.6810,1.5,37.15,1111122 
ENP,ioos.station.NOAA.NDBC:BOBF1:1,2019-03-06T11:00:00Z,25.0270,-80.6810,1.5,37.03,1111122 
ENP,ioos.station.NOAA.NDBC:BOBF1:1,2019-03-06T12:00:00Z,25.0270,-80.6810,1.5,37.05,1111122 
ENP,ioos.station.NOAA.NDBC:BOBF1:1,2019-03-06T13:00:00Z,25.0270,-80.6810,1.5,37.07,1111122 
ENP,ioos.station.NOAA.NDBC:BOBF1:1,2019-03-06T14:00:00Z,25.0270,-80.6810,1.5,37.08,1111122 
ENP,ioos.station.NOAA.NDBC:BOBF1:1,2019-03-06T15:00:00Z,25.0270,-80.6810,1.5,37.06,1111122 
ENP,ioos.station.NOAA.NDBC:BOBF1:1,2019-03-06T16:00:00Z,25.0270,-80.6810,1.5,37.04,1111122 
ENP,ioos.station.NOAA.NDBC:BOBF1:1,2019-03-06T17:00:00Z,25.0270,-80.6810,1.5,37.03,1111122 
ENP,ioos.station.NOAA.NDBC:BOBF1:1,2019-03-06T18:00:00Z,25.0270,-80.6810,1.5,37.01,1111122 
ENP,ioos.station.NOAA.NDBC:BOBF1:1,2019-03-06T19:00:00Z,25.0270,-80.6810,1.5,36.98,1111122 
ENP,ioos.station.NOAA.NDBC:BOBF1:1,2019-03-06T20:00:00Z,25.0270,-80.6810,1.5,36.95,1111122 
ENP,ioos.station.NOAA.NDBC:BOBF1:1,2019-03-06T21:00:00Z,25.0270,-80.6810,1.5,36.91,1111122 
ENP,ioos.station.NOAA.NDBC:BOBF1:1,2019-03-06T22:00:00Z,25.0270,-80.6810,1.5,36.91,1111122 
ENP,ioos.station.NOAA.NDBC:BOBF1:1,2019-03-06T23:00:00Z,25.0270,-80.6810,1.5,36.91,1111122 
ENP,ioos.station.NOAA.NDBC:BOBF1:1,2019-03-07T00:00:00Z,25.0270,-80.6810,1.5,36.91,1111122 
ENP,ioos.station.NOAA.NDBC:BOBF1:1,2019-03-07T01:00:00Z,25.0270,-80.6810,1.5,36.9,1111122 
ENP,ioos.station.NOAA.NDBC:BOBF1:1,2019-03-07T02:00:00Z,25.0270,-80.6810,1.5,36.89,1111122 
ENP,ioos.station.NOAA.NDBC:BOBF1:1,2019-03-07T03:00:00Z,25.0270,-80.6810,1.5,36.91,1111122 
ENP,ioos.station.NOAA.NDBC:BOBF1:1,2019-03-07T05:00:00Z,25.0270,-80.6810,1.5,36.94,1111122 
ENP,ioos.station.NOAA.NDBC:BOBF1:1,2019-03-07T06:00:00Z,25.0270,-80.6810,1.5,37.01,1111122 
ENP,ioos.station.NOAA.NDBC:BOBF1:1,2019-03-07T07:00:00Z,25.0270,-80.6810,1.5,37.09,1111122 
ENP,ioos.station.NOAA.NDBC:BOBF1:1,2019-03-07T08:00:00Z,25.0270,-80.6810,1.5,37.06,1111122 
ENP,ioos.station.NOAA.NDBC:BOBF1:1,2019-03-07T09:00:00Z,25.0270,-80.6810,1.5,37.03,1111122 
ENP,ioos.station.NOAA.NDBC:BOBF1:1,2019-03-07T10:00:00Z,25.0270,-80.6810,1.5,37.02,1111122 
ENP,ioos.station.NOAA.NDBC:BOBF1:1,2019-03-07T11:00:00Z,25.0270,-80.6810,1.5,37.09,1111122 
ENP,ioos.station.NOAA.NDBC:BOBF1:1,2019-03-07T12:00:00Z,25.0270,-80.6810,1.5,37.06,1111122 
ENP,ioos.station.NOAA.NDBC:BOBF1:1,2019-03-07T13:00:00Z,25.0270,-80.6810,1.5,37.01,1111122 
ENP,ioos.station.NOAA.NDBC:BOBF1:1,2019-03-07T14:00:00Z,25.0270,-80.6810,1.5,37.0,1111122 
ENP,ioos.station.NOAA.NDBC:BOBF1:1,2019-03-07T15:00:00Z,25.0270,-80.6810,1.5,36.99,1111122 
ENP,ioos.station.NOAA.NDBC:BOBF1:1,2019-03-07T16:00:00Z,25.0270,-80.6810,1.5,37.01,1111122 
ENP,ioos.station.NOAA.NDBC:BOBF1:1,2019-03-07T17:00:00Z,25.0270,-80.6810,1.5,37.2,1111122 
ENP,ioos.station.NOAA.NDBC:BOBF1:1,2019-03-07T18:00:00Z,25.0270,-80.6810,1.5,37.15,1111122 
ENP,ioos.station.NOAA.NDBC:BOBF1:1,2019-03-07T19:00:00Z,25.0270,-80.6810,1.5,37.16,1111122 
ENP,ioos.station.NOAA.NDBC:BOBF1:1,2019-03-07T20:00:00Z,25.0270,-80.6810,1.5,37.15,1111122 
ENP,ioos.station.NOAA.NDBC:BOBF1:1,2019-03-07T21:00:00Z,25.0270,-80.6810,1.5,37.11,1111122 
ENP,ioos.station.NOAA.NDBC:BOBF1:1,2019-03-07T22:00:00Z,25.0270,-80.6810,1.5,36.98,1111122 
ENP,ioos.station.NOAA.NDBC:BOBF1:1,2019-03-07T23:00:00Z,25.0270,-80.6810,1.5,36.86,1111122 
ENP,ioos.station.NOAA.NDBC:BOBF1:1,2019-03-08T00:00:00Z,25.0270,-80.6810,1.5,36.92,1111122 
ENP,ioos.station.NOAA.NDBC:BOBF1:1,2019-03-08T01:00:00Z,25.0270,-80.6810,1.5,36.98,1111122 
ENP,ioos.station.NOAA.NDBC:BOBF1:1,2019-03-08T02:00:00Z,25.0270,-80.6810,1.5,37.0,1111122 
ENP,ioos.station.NOAA.NDBC:BOBF1:1,2019-03-08T03:00:00Z,25.0270,-80.6810,1.5,36.8,1111122 
ENP,ioos.station.NOAA.NDBC:BOBF1:1,2019-03-08T05:00:00Z,25.0270,-80.6810,1.5,36.94,1111122 
ENP,ioos.station.NOAA.NDBC:BOBF1:1,2019-03-08T06:00:00Z,25.0270,-80.6810,1.5,36.92,1111122 
ENP,ioos.station.NOAA.NDBC:BOBF1:1,2019-03-08T07:00:00Z,25.0270,-80.6810,1.5,36.94,1111122 
ENP,ioos.station.NOAA.NDBC:BOBF1:1,2019-03-08T08:00:00Z,25.0270,-80.6810,1.5,36.99,1111122 
ENP,ioos.station.NOAA.NDBC:BOBF1:1,2019-03-08T09:00:00Z,25.0270,-80.6810,1.5,37.03,1111122 
ENP,ioos.station.NOAA.NDBC:BOBF1:1,2019-03-08T10:00:00Z,25.0270,-80.6810,1.5,37.03,1111122 
ENP,ioos.station.NOAA.NDBC:BOBF1:1,2019-03-08T11:00:00Z,25.0270,-80.6810,1.5,37.04,1111122 
ENP,ioos.station.NOAA.NDBC:BOBF1:1,2019-03-08T12:00:00Z,25.0270,-80.6810,1.5,37.02,1111122 
ENP,ioos.station.NOAA.NDBC:BOBF1:1,2019-03-08T13:00:00Z,25.0270,-80.6810,1.5,37.03,1111122 
ENP,ioos.station.NOAA.NDBC:BOBF1:1,2019-03-08T15:00:00Z,25.0270,-80.6810,1.5,37.11,1111122 
ENP,ioos.station.NOAA.NDBC:BOBF1:1,2019-03-08T16:00:00Z,25.0270,-80.6810,1.5,37.11,1111122 
ENP,ioos.station.NOAA.NDBC:BOBF1:1,2019-03-08T17:00:00Z,25.0270,-80.6810,1.5,37.03,1111122 
ENP,ioos.station.NOAA.NDBC:BOBF1:1,2019-03-08T18:00:00Z,25.0270,-80.6810,1.5,37.1,1111122 
ENP,ioos.station.NOAA.NDBC:BOBF1:1,2019-03-08T19:00:00Z,25.0270,-80.6810,1.5,37.08,1111122 
ENP,ioos.station.NOAA.NDBC:BOBF1:1,2019-03-08T20:00:00Z,25.0270,-80.6810,1.5,37.04,1111122 
ENP,ioos.station.NOAA.NDBC:BOBF1:1,2019-03-08T21:00:00Z,25.0270,-80.6810,1.5,36.99,1111122 
ENP,ioos.station.NOAA.NDBC:BOBF1:1,2019-03-08T22:00:00Z,25.0270,-80.6810,1.5,37.01,1111122 
ENP,ioos.station.NOAA.NDBC:BOBF1:1,2019-03-08T23:00:00Z,25.0270,-80.6810,1.5,37.03,1111122 
ENP,ioos.station.NOAA.NDBC:BOBF1:1,2019-03-09T00:00:00Z,25.0270,-80.6810,1.5,37.06,1111122 
ENP,ioos.station.NOAA.NDBC:BOBF1:1,2019-03-09T01:00:00Z,25.0270,-80.6810,1.5,37.09,1111122 
ENP,ioos.station.NOAA.NDBC:BOBF1:1,2019-03-09T03:00:00Z,25.0270,-80.6810,1.5,37.01,1111122 
ENP,ioos.station.NOAA.NDBC:BOBF1:1,2019-03-09T05:00:00Z,25.0270,-80.6810,1.5,35.45,1111122 
ENP,ioos.station.NOAA.NDBC:BOBF1:1,2019-03-09T06:00:00Z,25.0270,-80.6810,1.5,34.61,1111122 
ENP,ioos.station.NOAA.NDBC:BOBF1:1,2019-03-09T07:00:00Z,25.0270,-80.6810,1.5,37.3,1111122 
ENP,ioos.station.NOAA.NDBC:BOBF1:1,2019-03-09T08:00:00Z,25.0270,-80.6810,1.5,37.34,1111122 
ENP,ioos.station.NOAA.NDBC:BOBF1:1,2019-03-09T09:00:00Z,25.0270,-80.6810,1.5,37.34,1111122 
ENP,ioos.station.NOAA.NDBC:BOBF1:1,2019-03-09T10:00:00Z,25.0270,-80.6810,1.5,37.33,1111122 
ENP,ioos.station.NOAA.NDBC:BOBF1:1,2019-03-09T11:00:00Z,25.0270,-80.6810,1.5,37.25,1111122 
ENP,ioos.station.NOAA.NDBC:BOBF1:1,2019-03-09T12:00:00Z,25.0270,-80.6810,1.5,37.26,1111122 
ENP,ioos.station.NOAA.NDBC:BOBF1:1,2019-03-09T13:00:00Z,25.0270,-80.6810,1.5,37.26,1111122 
ENP,ioos.station.NOAA.NDBC:BOBF1:1,2019-03-09T14:00:00Z,25.0270,-80.6810,1.5,37.33,1111122 
ENP,ioos.station.NOAA.NDBC:BOBF1:1,2019-03-09T15:00:00Z,25.0270,-80.6810,1.5,37.4,1111122 
ENP,ioos.station.NOAA.NDBC:BOBF1:1,2019-03-09T16:00:00Z,25.0270,-80.6810,1.5,37.45,1111122 
ENP,ioos.station.NOAA.NDBC:BOBF1:1,2019-03-09T17:00:00Z,25.0270,-80.6810,1.5,37.59,1111122 
ENP,ioos.station.NOAA.NDBC:BOBF1:1,2019-03-09T18:00:00Z,25.0270,-80.6810,1.5,37.63,1111122 
ENP,ioos.station.NOAA.NDBC:BOBF1:1,2019-03-09T19:00:00Z,25.0270,-80.6810,1.5,37.6,1111122 
ENP,ioos.station.NOAA.NDBC:BOBF1:1,2019-03-09T20:00:00Z,25.0270,-80.6810,1.5,37.61,1111122 
ENP,ioos.station.NOAA.NDBC:BOBF1:1,2019-03-09T21:00:00Z,25.0270,-80.6810,1.5,37.58,1111122 
ENP,ioos.station.NOAA.NDBC:BOBF1:1,2019-03-09T22:00:00Z,25.0270,-80.6810,1.5,37.51,1111122 
ENP,ioos.station.NOAA.NDBC:BOBF1:1,2019-03-09T23:00:00Z,25.0270,-80.6810,1.5,37.47,1111122 
ENP,ioos.station.NOAA.NDBC:BOBF1:1,2019-03-10T00:00:00Z,25.0270,-80.6810,1.5,37.41,1111122 
ENP,ioos.station.NOAA.NDBC:BOBF1:1,2019-03-10T01:00:00Z,25.0270,-80.6810,1.5,37.32,1111122 
ENP,ioos.station.NOAA.NDBC:BOBF1:1,2019-03-10T02:00:00Z,25.0270,-80.6810,1.5,37.21,1111122 
ENP,ioos.station.NOAA.NDBC:BOBF1:1,2019-03-10T04:00:00Z,25.0270,-80.6810,1.5,37.4,1111122 
ENP,ioos.station.NOAA.NDBC:BOBF1:1,2019-03-10T05:00:00Z,25.0270,-80.6810,1.5,37.41,1111122 
ENP,ioos.station.NOAA.NDBC:BOBF1:1,2019-03-10T06:00:00Z,25.0270,-80.6810,1.5,37.52,1111122 
ENP,ioos.station.NOAA.NDBC:BOBF1:1,2019-03-10T08:00:00Z,25.0270,-80.6810,1.5,37.56,1111122 
ENP,ioos.station.NOAA.NDBC:BOBF1:1,2019-03-10T09:00:00Z,25.0270,-80.6810,1.5,37.59,1111122 
ENP,ioos.station.NOAA.NDBC:BOBF1:1,2019-03-10T10:00:00Z,25.0270,-80.6810,1.5,37.54,1111122 
ENP,ioos.station.NOAA.NDBC:BOBF1:1,2019-03-10T11:00:00Z,25.0270,-80.6810,1.5,37.49,1111122 
ENP,ioos.station.NOAA.NDBC:BOBF1:1,2019-03-10T12:00:00Z,25.0270,-80.6810,1.5,37.53,1111122 
ENP,ioos.station.NOAA.NDBC:BOBF1:1,2019-03-10T13:00:00Z,25.0270,-80.6810,1.5,37.52,1111122 
ENP,ioos.station.NOAA.NDBC:BOBF1:1,2019-03-10T14:00:00Z,25.0270,-80.6810,1.5,37.53,1111122 
ENP,ioos.station.NOAA.NDBC:BOBF1:1,2019-03-10T15:00:00Z,25.0270,-80.6810,1.5,37.53,1111122 
ENP,ioos.station.NOAA.NDBC:BOBF1:1,2019-03-10T16:00:00Z,25.0270,-80.6810,1.5,37.53,1111122 
ENP,ioos.station.NOAA.NDBC:BOBF1:1,2019-03-10T17:00:00Z,25.0270,-80.6810,1.5,37.57,1111122 
ENP,ioos.station.NOAA.NDBC:BOBF1:1,2019-03-10T18:00:00Z,25.0270,-80.6810,1.5,37.67,1111122 
ENP,ioos.station.NOAA.NDBC:BOBF1:1,2019-03-10T19:00:00Z,25.0270,-80.6810,1.5,37.72,1111122 
ENP,ioos.station.NOAA.NDBC:BOBF1:1,2019-03-10T20:00:00Z,25.0270,-80.6810,1.5,37.74,1111122 
ENP,ioos.station.NOAA.NDBC:BOBF1:1,2019-03-10T21:00:00Z,25.0270,-80.6810,1.5,37.69,1111122 
ENP,ioos.station.NOAA.NDBC:BOBF1:1,2019-03-11T04:00:00Z,25.0270,-80.6810,1.5,37.26,1111122 
ENP,ioos.station.NOAA.NDBC:BOBF1:1,2019-03-11T05:00:00Z,25.0270,-80.6810,1.5,37.24,1111122 
ENP,ioos.station.NOAA.NDBC:BOBF1:1,2019-03-11T06:00:00Z,25.0270,-80.6810,1.5,37.43,1111122 
ENP,ioos.station.NOAA.NDBC:BOBF1:1,2019-03-11T07:00:00Z,25.0270,-80.6810,1.5,37.63,1111122 
ENP,ioos.station.NOAA.NDBC:BOBF1:1,2019-03-11T08:00:00Z,25.0270,-80.6810,1.5,37.7,1111122 
ENP,ioos.station.NOAA.NDBC:BOBF1:1,2019-03-11T09:00:00Z,25.0270,-80.6810,1.5,37.77,1111122 
ENP,ioos.station.NOAA.NDBC:BOBF1:1,2019-03-11T10:00:00Z,25.0270,-80.6810,1.5,36.63,1111122 
ENP,ioos.station.NOAA.NDBC:BOBF1:1,2019-03-11T11:00:00Z,25.0270,-80.6810,1.5,37.8,1111122 
ENP,ioos.station.NOAA.NDBC:BOBF1:1,2019-03-11T12:00:00Z,25.0270,-80.6810,1.5,37.69,1111122 
ENP,ioos.station.NOAA.NDBC:BOBF1:1,2019-03-11T13:00:00Z,25.0270,-80.6810,1.5,37.52,1111122 
ENP,ioos.station.NOAA.NDBC:BOBF1:1,2019-03-11T14:00:00Z,25.0270,-80.6810,1.5,37.45,1111122 
ENP,ioos.station.NOAA.NDBC:BOBF1:1,2019-03-11T15:00:00Z,25.0270,-80.6810,1.5,37.38,1111122 
ENP,ioos.station.NOAA.NDBC:BOBF1:1,2019-03-11T16:00:00Z,25.0270,-80.6810,1.5,37.36,1111122 
ENP,ioos.station.NOAA.NDBC:BOBF1:1,2019-03-11T17:00:00Z,25.0270,-80.6810,1.5,37.3,1111122 
ENP,ioos.station.NOAA.NDBC:BOBF1:1,2019-03-11T18:00:00Z,25.0270,-80.6810,1.5,37.41,1111122 
ENP,ioos.station.NOAA.NDBC:BOBF1:1,2019-03-11T19:00:00Z,25.0270,-80.6810,1.5,37.81,1111122 
ENP,ioos.station.NOAA.NDBC:BOBF1:1,2019-03-11T20:00:00Z,25.0270,-80.6810,1.5,37.85,1111122 
ENP,ioos.station.NOAA.NDBC:BOBF1:1,2019-03-11T21:00:00Z,25.0270,-80.6810,1.5,37.86,1111122 
ENP,ioos.station.NOAA.NDBC:BOBF1:1,2019-03-11T22:00:00Z,25.0270,-80.6810,1.5,37.74,1111122 
ENP,ioos.station.NOAA.NDBC:BOBF1:1,2019-03-11T23:00:00Z,25.0270,-80.6810,1.5,37.66,1111122 
ENP,ioos.station.NOAA.NDBC:BOBF1:1,2019-03-12T00:00:00Z,25.0270,-80.6810,1.5,37.62,1111122 
ENP,ioos.station.NOAA.NDBC:BOBF1:1,2019-03-12T01:00:00Z,25.0270,-80.6810,1.5,37.5,1111122 
ENP,ioos.station.NOAA.NDBC:BOBF1:1,2019-03-12T02:00:00Z,25.0270,-80.6810,1.5,37.41,1111122 
ENP,ioos.station.NOAA.NDBC:BOBF1:1,2019-03-12T04:00:00Z,25.0270,-80.6810,1.5,37.28,1111122 
ENP,ioos.station.NOAA.NDBC:BOBF1:1,2019-03-12T05:00:00Z,25.0270,-80.6810,1.5,37.23,1111122 
ENP,ioos.station.NOAA.NDBC:BOBF1:1,2019-03-12T06:00:00Z,25.0270,-80.6810,1.5,37.25,1111122 
ENP,ioos.station.NOAA.NDBC:BOBF1:1,2019-03-12T07:00:00Z,25.0270,-80.6810,1.5,37.29,1111122 
ENP,ioos.station.NOAA.NDBC:BOBF1:1,2019-03-12T08:00:00Z,25.0270,-80.6810,1.5,37.33,1111122 
ENP,ioos.station.NOAA.NDBC:BOBF1:1,2019-03-12T09:00:00Z,25.0270,-80.6810,1.5,37.33,1111122 
ENP,ioos.station.NOAA.NDBC:BOBF1:1,2019-03-12T10:00:00Z,25.0270,-80.6810,1.5,37.35,1111122 
ENP,ioos.station.NOAA.NDBC:BOBF1:1,2019-03-12T11:00:00Z,25.0270,-80.6810,1.5,37.3,1111122 
ENP,ioos.station.NOAA.NDBC:BOBF1:1,2019-03-12T12:00:00Z,25.0270,-80.6810,1.5,35.14,1111122 
ENP,ioos.station.NOAA.NDBC:BOBF1:1,2019-03-12T13:00:00Z,25.0270,-80.6810,1.5,37.39,1111122 
ENP,ioos.station.NOAA.NDBC:BOBF1:1,2019-03-12T14:00:00Z,25.0270,-80.6810,1.5,37.42,1111122 
ENP,ioos.station.NOAA.NDBC:BOBF1:1,2019-03-12T15:00:00Z,25.0270,-80.6810,1.5,37.33,1111122 
ENP,ioos.station.NOAA.NDBC:BOBF1:1,2019-03-12T16:00:00Z,25.0270,-80.6810,1.5,37.14,1111122 
ENP,ioos.station.NOAA.NDBC:BOBF1:1,2019-03-12T17:00:00Z,25.0270,-80.6810,1.5,37.24,1111122 
ENP,ioos.station.NOAA.NDBC:BOBF1:1,2019-03-12T18:00:00Z,25.0270,-80.6810,1.5,37.48,1111122 
ENP,ioos.station.NOAA.NDBC:BOBF1:1,2019-03-12T19:00:00Z,25.0270,-80.6810,1.5,37.36,1111122 
ENP,ioos.station.NOAA.NDBC:BOBF1:1,2019-03-12T20:00:00Z,25.0270,-80.6810,1.5,37.44,1111122 
ENP,ioos.station.NOAA.NDBC:BOBF1:1,2019-03-12T21:00:00Z,25.0270,-80.6810,1.5,37.36,1111122 
ENP,ioos.station.NOAA.NDBC:BOBF1:1,2019-03-12T22:00:00Z,25.0270,-80.6810,1.5,37.3,1111122 
ENP,ioos.station.NOAA.NDBC:BOBF1:1,2019-03-12T23:00:00Z,25.0270,-80.6810,1.5,37.59,1111122 
ENP,ioos.station.NOAA.NDBC:BOBF1:1,2019-03-13T00:00:00Z,25.0270,-80.6810,1.5,37.56,1111122 
ENP,ioos.station.NOAA.NDBC:BOBF1:1,2019-03-13T01:00:00Z,25.0270,-80.6810,1.5,37.68,1111122 